1st Responders/1st Detectors/Storm Spotters Weather Summary for Washington County, KY

Forecast Maps


Reg. NEXRAD Animation


National Fire Danger: Day 1 & 2 Map

Current NWS Watch/Warnings

SPC Convective Day 1 Outlook


Day 2 Outlook

(Click images to enlarge|Page will refresh every 5 minutes)
UK Ag. Weather Center Desktop Severe Weather Service[HERE]
Washington County, KY Hazardous Weather Outlook Webcast
(9 AM to 9 PM Mon-Fri)
[Fast]
[Dial-up]


UKAWC 1st Detectors/1st Responders Precision Weather Forecast For WASHINGTON County, Kentucky
(based on the NWS County Digital Forecast)

ISSUED AT 20:00 UTC ON THURSDAY NOV 14 2019
DAY THURSDAY
EDT 3HR 5P 6P 7P
MAX/MIN -- -- 47°
TEMP 45° 43° 40°
SKY COVER 32% 33% 33%
Clouds
DEW PT 23° 23° 23°
RH 41% 44% 52%
POP 12HR -- -- --
RAIN/SNOW (liq.equ) -- -- --
SNOWFALL -- -- --
WIND SPEED(MPH) 7 6 5
WIND Gust(MPH) 8 7 5
WIND DIR SW W W
DEW -- -- --
HeatIndex 45 40 36
Fog -- -- --
WIND CHILL 41° 39° 37°
SPRAY COND
DRY COND
LIVESTOCK COLDSTRESS



DAY FRIDAY SATURDAY SUNDAY MONDAY TUESDAY WEDNESDAY
EDT 6HR 8P 9P 10P 11P MIDN 1A 2A 3A 4A 5A 6A 7A 8A 9A 10A 11A NOON 1P 2P 3P 4P 5P 6P 7P 8P 9P 10P 11P MIDN 1A 2A 3A 4A 5A 8A 11A 2P 5P 8P 2A 8A 2P 8P 2A 8A 2P 8P 2A 8A 2P 8P 2A 8A 2P 8P
MAX/MIN -- -- -- -- -- -- -- -- -- -- -- -- 23° -- -- -- -- -- -- -- -- -- -- 45° -- -- -- -- -- -- -- -- -- -- 23° -- -- 47° -- -- 25° 52° -- -- 31° 52° -- -- 34° 54° -- -- 36° 54° --
TEMP 36° 32° 31° 31° 29° 29° 27° 27° 25° 25° 23° 23° 23° 25° 29° 31° 36° 40° 43° 45° 45° 43° 40° 36° 32° 31° 29° 29° 27° 27° 27° 27° 25° 25° 25° 34° 41° 43° 36° 27° 25° 47° 41° 34° 32° 47° 43° 36° 36° 49° 45° 38° 38° 50° 47°
SKY COVER 34% 28% 23% 17% 20% 22% 25% 28% 30% 33% 35% 37% 35% 34% 33% 33% 24% 15% 7% 6% 5% 4% 4% 4% 5% 16% 24% 28% 27% 24% 23% 24% 27% 28% 35% 32% 17% 4% 10% 13% 22% 56% 74% 70% 73% 56% 54% 58% 72% 60% 59% 50% 54% 52% 62%
Clouds
DEW PT 23° 23° 23° 23° 23° 23° 23° 23° 22° 22° 22° 22° 22° 23° 25° 27° 29° 29° 29° 29° 27° 27° 27° 27° 27° 25° 23° 23° 23° 23° 23° 23° 23° 23° 23° 27° 29° 29° 27° 25° 23° 31° 32° 31° 31° 36° 36° 34° 36° 40° 40° 38° 36° 41° 40°
RH 59% 68% 72% 75% 78% 81% 84% 88% 88% 92% 95% 91% 96% 92% 84% 81% 75% 66% 60% 53% 50% 53% 56% 69% 78% 75% 78% 81% 84% 88% 88% 88% 91% 91% 92% 75% 62% 55% 72% 88% 95% 53% 70% 91% 96% 62% 76% 92% 99% 71% 83% 100% 95% 70% 79%
POP 12HR 0% -- -- -- -- -- -- -- -- -- -- -- 0% -- -- -- -- -- -- -- -- -- -- -- 0% -- -- -- -- -- -- -- -- -- 0% -- -- -- 0% -- 0% -- 0% -- 1% -- 3% -- 10% -- 13% -- 9% -- 4%
RAIN/SNOW (liq.equ) 0.00in -- -- -- -- -- 0.00in -- -- -- -- -- 0.00in -- -- -- -- -- 0.00in -- -- -- -- -- 0.00in -- -- -- -- -- 0.00in -- -- -- 0.00in -- 0.00in -- 0.00in 0.00in 0.00in -- -- -- -- -- -- -- -- -- -- -- -- -- --
SNOWFALL 0in -- -- -- -- -- 0in -- -- -- -- -- 0in -- -- -- -- -- 0in -- -- -- -- -- 0in -- -- -- -- -- 0in -- -- -- 0in -- 0in -- 0in 0in 0in -- -- -- -- -- -- -- -- -- -- -- -- -- --
WIND SPEED(MPH) 2 2 1 1 1 0 0 0 1 1 1 1 1 2 5 5 5 5 5 6 6 7 6 5 2 2 2 2 2 2 2 2 5 5 6 7 7 7 5 1 1 2 1 0 1 6 1 1 1 7 2 2 5 7 1
WIND DIR W W W W NW NW NW NW N N N N N N N N N N N N N N N N N N N NE NE NE NE NE NE NE NE NE NE NE NE E NE W E W SW SW W W W W W W S W S
HeatIndex 34 29 31 31 29 29 27 27 25 25 23 23 23 21 23 27 32 36 40 41 41 40 37 32 29 28 26 25 24 23 23 23 20 20 19 27 36 39 32 27 25 47 41 34 32 47 43 36 36 49 43 36 34 50 47
Fog -- -- -- -- -- -- -- -- -- Patchy Patchy Patchy Patchy Patchy -- -- -- -- -- -- -- -- -- -- -- -- -- -- -- -- -- -- -- -- -- -- -- -- -- -- -- -- -- -- -- -- -- -- -- -- -- -- -- -- --
WIND CHILL -- -- -- -- -- -- -- -- -- -- -- -- -- -- 24° 26° 32° 37° 40° 42° 42° 39° 36° 32° -- -- -- -- -- -- -- -- 19° 19° 18° 28° 36° 39° 32° -- -- -- -- -- -- -- -- -- -- -- -- -- 35° -- --
SPRAY COND
DRY COND
LIVESTOCK COLDSTRESS

Click on individual weather variable above in left-hand column (ie., TEMP, RH, QPF 12HR) to view state forecast maps






NWS 48 Hr. Forecast Maps,

Regional Hourly Observations For WASHINGTON County, Kentucky
Issued at 300 PM EST THU NOV 14 2019
NORTH CENTRAL KENTUCKY
  
CITY           SKY/WX    TMP DP  RH WIND       PRES   REMARKS
LOUISVILLE/SDF PTSUNNY   47  22  37 CALM      30.24S                  
LOUISVILLE/LOU FAIR      47  23  38 SW6       30.24S                  
FORT KNOX      FAIR      47  20  34 SW9       30.24S                  


Current NOWCAST not available:
Nowcasts are not issued routinely during fair weather. Only when
precipitation or other significant weather is occuring in this county will these
forecasts be issued. Currently, there is no short term forecast in effect.


Fire Weather Forecast For WASHINGTON County, KY
Provided by the National Weather Service:

Issued at: Thu Nov 14 15:29:26 EST 2019


                      Tonight      Fri          Fri Night    Sat          

CLOUD COVER           Pcldy        Mclear       Mclear       Pcldy        
PRECIP TYPE           None         None         None         None         
CHANCE PRECIP (%)     0            0            0            0            
TEMP (24H TREND)      22 (-2)      44 (-2)      25           46           
RH % (24H TREND)      94 (+13)     53 (+11)     98           52           
20FTWND-VAL/AM(MPH)                Lgt/Var                   NE  5        
20FTWND-RDG/PM(MPH)   Lgt/Var      N  5         Lgt/Var      NE  6        
PRECIP AMOUNT         0.00         0.00         0.00         0.00         
MIXING HGT(FT-AGL/MSL)             2373                      2219         
TRANSPORT WND (MPH)                N  6                      NE 14        
VENT RATE (KT-FT)                  12138                     26116        
DISPERSION                         Poor                      Poor         
DSI                   STBL         STBL         STBL         STBL         
LAL                   1            1            1            1            
HAINES INDEX          2            3            3            3            
ADI EARLY             0 VERY POOR  0 VERY POOR  0 VERY POOR  0 VERY POOR  
ADI LATE              0 VERY POOR  0 VERY POOR  0 VERY POOR  0 VERY POOR  
MAX LVORI EARLY       5            8            7            8            
MAX LVORI LATE        7            4            8            3            

REMARKS...ADI IS ATMOSPHERIC DISPERSION INDEX BY LAVDAS.        
LVORI IS LOW VISIBILITY OCCURRENCE RISK INDEX.

.SUNDAY...Partly cloudy. Lows in the mid 20s. Highs in the lower
50s. Light winds. 
.MONDAY...Mostly cloudy. Lows in the lower 30s. Highs around 50.
West winds up to 5 mph. 
.TUESDAY...Mostly cloudy. Lows in the lower 30s. Highs around 50.
West winds up to 5 mph. 
.WEDNESDAY...Mostly cloudy. Lows in the mid 30s. Highs in the
lower 50s. West winds up to 5 mph. 
.THURSDAY...Mostly cloudy. A 40 percent chance of rain. Lows in
the mid 30s. Highs in the upper 50s. South winds up to 10 mph. 

SPC's Fire Weather Web Tool (Excellent!), SPC's Fire Weather Outlooks, NWS Fire Weather WEB, Fire Danger Class Map,
Keetch-Byram Drought Index, ROMAN Web, Haines Index ,
WFAS's 10-hr Dead Fuel Moist., WFAS's 100-hr Dead Fuel Moist., Probablity of Ignition, Visual blackness Map, Palmer Drought Index, HPC's Rainfall Forecast Maps


Hazardous Weather Outlook For WASHINGTON County, Kentucky
350 PM EST Thu Nov 14 2019 /250 PM CST Thu Nov 14 2019/

 DAY ONE  Tonight.

No hazardous weather is expected at this time.

 DAYS TWO THROUGH SEVEN  Friday through Wednesday.

No hazardous weather is expected at this time.

 SPOTTER INFORMATION STATEMENT  

Spotter activation is not anticipated at this time.

More information, along with other weather, hydrological and
climate information can be found, at weather.gov/louisville.

Latest WASHINGTON County, Kentucky Watches, Warnings and Advisories.
Additional Drought Info.: UKAWC Drought Page, Kentucky Drought Watch


7-Day Forecast For WASHINGTON County, KY

TONIGHT
Partly cloudy. Patchy fog after midnight. Lows in the mid 20s. Northwest winds up to 5 mph.

FRIDAY
Mostly sunny. Patchy fog. Highs in the lower 40s. North winds up to 10 mph.

FRIDAY NIGHT
Partly cloudy. Lows in the mid 20s. Northeast winds up to 5 mph.

SATURDAY
Partly cloudy. Highs in the upper 40s. Northeast winds 5 to 10 mph.

SATURDAY NIGHT
Mostly clear. Lows in the mid 20s. Northeast winds up to 5 mph.

SUNDAY
Partly cloudy. Highs in the lower 50s.

SUNDAY NIGHT
Mostly cloudy. Lows in the lower 30s.

MONDAY
Mostly cloudy. Highs in the lower 50s.

MONDAY NIGHT
Mostly cloudy. Lows in the mid 30s.

TUESDAY
Mostly cloudy with a 20 percent chance of rain. Highs in the lower 50s.

TUESDAY NIGHT
Mostly cloudy. Lows in the mid 30s.

WEDNESDAY
Partly cloudy. Highs in the lower 50s.

WEDNESDAY NIGHT
Partly cloudy. Lows in the mid 30s.

THURSDAY
Partly cloudy with a 40 percent chance of rain. Highs in the upper 50s.

Ag Weather Center, Department of Biosystems & Agricultural Engineering, University of Kentucky